Regional Weather Roundup
Issued by NWS State College, PA

Home | Current Version | Previous Version | Graphics & Text | Print | Product List | Glossary Off
Versions: 1 2 3 4 5 6 7 8 9 10 11 12 13 14 15 16 17 18 19 20 21 22 23 24 25 26 27 28 29 30 31 32 33 34 35 36 37 38 39 40 41 42 43 44 45 46 47 48 49 50

000
ASUS41 KCTP 050803
RWRCTP

REGIONAL WEATHER ROUNDUP
NATIONAL WEATHER SERVICE STATE COLLEGE PA
400 AM EDT SUN JUL 05 2015

Note: "fair" indicates few or no clouds below 12,000 feet with no
significant weather and/or obstructions to visibility.

* = STATION THAT DOES NOT REPORT PRECIPITATION /E.G. RAIN...SNOW...ETC/
    THUNDER OR FOG.

PAZ002>004-007>009-013>016-020>023-029>032-050900-
WESTERN PENNSYLVANIA

CITY           SKY/WX    TMP DP  RH WIND       PRES   REMARKS
ERIE           CLEAR     59  52  77 S5        30.09S
MEADVILLE      CLEAR     56  51  84 CALM      30.11S HAZE
FRANKLIN*      CLEAR     52  48  87 CALM      30.12S
NEW CASTLE     FAIR      54  54 100 CALM      30.11S
BEAVER COUNTY  NOT AVBL
BUTLER*        PTCLDY    54  54 100 CALM      30.12S
PITTSBURGH INT CLOUDY    58  54  86 CALM      30.09F
PITTSBURGH     PTCLDY    62  53  72 CALM      30.09S
INDIANA*       CLOUDY    55  55 100 CALM      30.14S
LATROBE        NOT AVBL
WASHINGTON CO* NOT AVBL
$$

PAZ004>006-010>012-017>019-024>028-033>037-041-042-045-046-049>053-050900-
CENTRAL PENNSYLVANIA

CITY           SKY/WX    TMP DP  RH WIND       PRES   REMARKS
BRADFORD       CLEAR     47  45  93 CALM      30.12F
DUBOIS         PTCLDY    56  51  84 CALM      30.11S
CLEARFIELD     PTCLDY    55  53  93 N6        30.11S
JOHNSTOWN      PTCLDY    59  53  80 CALM      30.13R
ALTOONA        FOG       61  60  97 CALM      30.11S VSB 1/4
STATE COLLEGE  CLOUDY    63  63  99 CALM      30.10R FOG
WILLIAMSPORT   CLOUDY    62  61  96 CALM      30.08R FOG
SELINSGROVE    FOG       63  62  97 CALM      30.09R VSB 1/4
FT INDIANTOWN  FOG       59  59  99 CALM      30.08R VSB 1/2
CAPITAL CITY   CLOUDY    62  60  93 CALM      30.08R FOG
HARRISBURG     PTCLDY    64  61  90 CALM      30.07S FOG
YORK           FOG       64  64 100 CALM      30.09R VSB 1/4
$$

PAZ038>040-043-044-047-048-054-055-060>062-067>071-050900-
EASTERN PENNSYLVANIA

CITY           SKY/WX    TMP DP  RH WIND       PRES   REMARKS
SCRANTON       FOG       63  61  93 CALM      30.08F VSB 1/4
MOUNT POCONO     N/A     59  57  93 NW7       30.10S FOG
ALLENTOWN      PTCLDY    64  62  93 CALM      30.07R FOG
QUAKERTOWN*    CLOUDY    63  63 100 CALM      30.08S
READING        MOCLDY    66  63  90 CALM      30.07R
LANCASTER      CLOUDY    65  63  93 CALM      30.07S FOG
COATESVILLE    CLOUDY    66  66 100 CALM      30.08S FOG
POTTSTOWN      CLOUDY    66  66 100 CALM      30.08S FOG
BLUE BELL      PTCLDY    63  63 100 CALM      30.06S
DOYLESTOWN     CLOUDY    65  61  87 CALM      30.06R
WILLOW GROVE   NOT AVBL
NORTH PHILA    CLOUDY    67  57  70 CALM      30.07
PHILADELPHIA   MOCLDY    71  57  61 NW3       30.06S
$$


USA.gov is the U.S. government's official web portal to all federal, state and local government web resources and services.